Plattsmouth, NE

4:58 PM CDT on April 26, 2018 (GMT -0500)
Plattsmouth Municipal

Weather History for KPMV - December, 2013

Change the Weather History Date:

Thursday, December 12, 2013

  Actual Average (KOFF) Record (KOFF)
Temperature  
Mean Temperature 18 °F -  
Max Temperature 32 °F 38 °F 55 °F (2014)
Min Temperature 5 °F 20 °F -5 °F (2000)
Degree Days  
Heating Degree Days 46    
Moisture  
Dew Point 12 °F    
Average Humidity 70    
Maximum Humidity 80    
Minimum Humidity 62    
Precipitation  
Precipitation 0.00 in - - ()
Sea Level Pressure  
Sea Level Pressure 30.28 in    
Wind  
Wind Speed 8 mph (South)    
Max Wind Speed 13 mph    
Max Gust Speed -    
Visibility 10 miles    
Events      
Averages and records for this station are not official NWS values.
T = Trace of Precipitation, MM = Missing Value Source: NWS Daily Summary

Daily Weather History Graph

Daily Weather History Graph

Search for Another Location

Airport or City:

Astronomy

Dec. 12, 2013 Rise Set
Actual Time 7:39 AM CST 4:55 PM CST
Civil Twilight 7:08 AM CST 5:26 PM CST
Nautical Twilight 6:33 AM CST 6:01 PM CST
Astronomical Twilight 6:00 AM CST 6:34 PM CST
Moon 2:04 PM CST (12/12) 3:01 AM CST (12/12)
Length of Visible Light 10h 18m
Length of Day
9h 16m
Waxing Gibbous, 80% of the Moon is Illuminated
Dec 12
Waxing Gibbous
Dec 17
Full
Dec 25
Last Quarter
Jan 1
New
Jan 7
First Quarter

Hourly Weather History & Observations

Time (CST) Temp. Windchill Dew Point Humidity Pressure Visibility Wind Dir Wind Speed Gust Speed Precip Events Conditions
12:15 AM 5.7 °F -8.2 °F -1.8 °F 71% 30.46 in 10.0 mi South 9.2 mph - N/A   Clear
12:35 AM 5.9 °F -10.5 °F -1.5 °F 72% 30.45 in 10.0 mi South 12.7 mph - N/A   Clear
12:55 AM 7.2 °F -8.1 °F -0.8 °F 70% 30.43 in 10.0 mi South 11.5 mph - N/A   Clear
1:15 AM 8.4 °F -7.3 °F -0.4 °F 67% 30.43 in 10.0 mi South 12.7 mph - N/A   Clear
1:35 AM 9.1 °F -6.4 °F -0.4 °F 65% 30.42 in 10.0 mi South 12.7 mph - N/A   Clear
1:55 AM 9.0 °F -5.9 °F -0.4 °F 66% 30.41 in 10.0 mi South 11.5 mph - N/A   Clear
2:15 AM 7.2 °F -7.3 °F -1.1 °F 69% 30.41 in 10.0 mi South 10.4 mph - N/A   Clear
2:35 AM 6.8 °F -6.9 °F -0.9 °F 71% 30.40 in 10.0 mi South 9.2 mph - N/A   Clear
2:55 AM 6.4 °F -6.3 °F -1.1 °F 71% 30.40 in 10.0 mi South 8.1 mph - N/A   Clear
3:15 AM 6.8 °F -4.8 °F -0.6 °F 72% 30.40 in 10.0 mi South 6.9 mph - N/A   Clear
3:35 AM 7.2 °F -5.4 °F -0.6 °F 71% 30.39 in 10.0 mi South 8.1 mph - N/A   Clear
3:55 AM 6.8 °F -4.8 °F -0.4 °F 72% 30.38 in 10.0 mi South 6.9 mph - N/A   Clear
4:15 AM 8.6 °F -1.3 °F 0.5 °F 70% 30.37 in 10.0 mi South 5.8 mph - N/A   Clear
4:35 AM 9.7 °F -0.1 °F 0.9 °F 68% 30.37 in 10.0 mi South 5.8 mph - N/A   Clear
4:55 AM 8.8 °F 0.4 °F 1.0 °F 71% 30.36 in 10.0 mi SSW 4.6 mph - N/A   Clear
5:15 AM 11.8 °F 0.3 °F 3.0 °F 68% 30.36 in 10.0 mi SSW 8.1 mph - N/A   Clear
5:35 AM 14.4 °F 2.4 °F 4.8 °F 66% 30.35 in 10.0 mi SSW 9.2 mph - N/A   Clear
5:55 AM 15.1 °F 3.3 °F 5.4 °F 65% 30.35 in 10.0 mi SSW 9.2 mph - N/A   Clear
6:15 AM 15.3 °F 2.8 °F 5.9 °F 67% 30.35 in 10.0 mi SSW 10.4 mph - N/A   Clear
6:35 AM 14.5 °F 3.6 °F 5.9 °F 69% 30.35 in 10.0 mi SSW 8.1 mph - N/A   Clear
6:55 AM 14.5 °F 4.6 °F 6.3 °F 70% 30.35 in 10.0 mi SSW 6.9 mph - N/A   Clear
7:15 AM 14.9 °F 6.1 °F 6.6 °F 70% 30.36 in 10.0 mi SSW 5.8 mph - N/A   Clear
7:35 AM 14.7 °F 5.9 °F 6.8 °F 71% 30.36 in 10.0 mi SSW 5.8 mph - N/A   Clear
7:55 AM 14.9 °F 6.1 °F 7.3 °F 72% 30.36 in 10.0 mi SSW 5.8 mph - N/A   Clear
8:15 AM 15.4 °F 5.6 °F 7.7 °F 71% 30.36 in 10.0 mi SSW 6.9 mph - N/A   Clear
8:35 AM 16.0 °F 6.3 °F 8.2 °F 72% 30.35 in 10.0 mi SSW 6.9 mph - N/A   Clear
8:55 AM 17.6 °F 5.7 °F 9.3 °F 70% 30.35 in 10.0 mi SW 10.4 mph - N/A   Clear
9:15 AM 18.5 °F 11.7 °F 10.0 °F 70% 30.35 in 10.0 mi SSW 4.6 mph - N/A   Clear
9:35 AM 19.9 °F 12.1 °F 11.1 °F 69% 30.36 in 10.0 mi SW 5.8 mph - N/A   Clear
9:55 AM 21.0 °F 13.4 °F 12.0 °F 68% 30.36 in 10.0 mi SW 5.8 mph - N/A   Clear
10:15 AM 22.1 °F 12.0 °F 12.7 °F 67% 30.35 in 10.0 mi SW 9.2 mph - N/A   Clear
10:35 AM 23.0 °F 15.8 °F 13.5 °F 67% 30.34 in 10.0 mi SSW 5.8 mph - N/A   Clear
10:55 AM 23.9 °F 15.0 °F 13.8 °F 65% 30.34 in 10.0 mi SSW 8.1 mph - N/A   Clear
11:15 AM 24.8 °F 14.6 °F 14.5 °F 65% 30.33 in 10.0 mi SSW 10.4 mph - N/A   Clear
11:35 AM 25.7 °F 17.1 °F 15.4 °F 65% 30.33 in 10.0 mi SSW 8.1 mph - N/A   Clear
11:55 AM 26.6 °F 18.2 °F 15.8 °F 64% 30.32 in 10.0 mi SSW 8.1 mph - N/A   Clear
12:15 PM 27.5 °F 18.0 °F 16.7 °F 64% 30.30 in 10.0 mi SSW 10.4 mph - N/A   Clear
12:35 PM 28.4 °F 21.2 °F 17.4 °F 63% 30.29 in 10.0 mi SSW 6.9 mph - N/A   Clear
12:55 PM 29.3 °F 21.5 °F 18.0 °F 63% 30.29 in 10.0 mi South 8.1 mph - N/A   Clear
1:15 PM 29.8 °F 22.2 °F 18.1 °F 62% 30.28 in 10.0 mi South 8.1 mph - N/A   Clear
1:35 PM 30.4 °F 22.9 °F 18.7 °F 62% 30.27 in 10.0 mi SSW 8.1 mph - N/A   Clear
1:55 PM 31.1 °F 23.7 °F 19.6 °F 62% 30.26 in 10.0 mi SSW 8.1 mph - N/A   Clear
2:15 PM 31.6 °F 24.4 °F 19.8 °F 62% 30.25 in 10.0 mi South 8.1 mph - N/A   Clear
2:35 PM 32.0 °F 25.6 °F 20.1 °F 62% 30.24 in 10.0 mi SSW 6.9 mph - N/A   Clear
2:55 PM 32.0 °F 24.8 °F 20.8 °F 63% 30.23 in 10.0 mi South 8.1 mph - N/A   Clear
3:15 PM 32.0 °F 24.8 °F 21.4 °F 65% 30.23 in 10.0 mi South 8.1 mph - N/A   Clear
3:35 PM 31.8 °F 23.9 °F 21.6 °F 66% 30.23 in 10.0 mi South 9.2 mph - N/A   Clear
3:55 PM 32.0 °F 25.6 °F 21.0 °F 64% 30.23 in 10.0 mi South 6.9 mph - N/A   Clear
4:15 PM 31.8 °F 26.2 °F 21.2 °F 65% 30.21 in 10.0 mi South 5.8 mph - N/A   Clear
4:35 PM 31.1 °F 25.4 °F 21.0 °F 66% 30.20 in 10.0 mi SSE 5.8 mph - N/A   Clear
4:55 PM 30.0 °F 24.1 °F 20.3 °F 67% 30.19 in 10.0 mi SSE 5.8 mph - N/A   Clear
5:15 PM 29.1 °F 23.0 °F 19.9 °F 69% 30.19 in 10.0 mi SSE 5.8 mph - N/A   Clear
5:35 PM 28.4 °F 22.2 °F 19.9 °F 71% 30.19 in 10.0 mi SSE 5.8 mph - N/A   Clear
5:55 PM 27.9 °F 21.5 °F 19.4 °F 71% 30.18 in 10.0 mi South 5.8 mph - N/A   Clear
6:15 PM 27.3 °F 19.1 °F 19.4 °F 72% 30.18 in 10.0 mi South 8.1 mph - N/A   Clear
6:35 PM 25.5 °F 16.9 °F 18.5 °F 75% 30.18 in 10.0 mi South 8.1 mph - N/A   Clear
6:55 PM 25.3 °F 18.5 °F 18.3 °F 75% 30.17 in 10.0 mi South 5.8 mph - N/A   Clear
7:15 PM 26.2 °F 19.6 °F 18.9 °F 74% 30.17 in 10.0 mi SSE 5.8 mph - N/A   Clear
7:35 PM 26.1 °F 19.4 °F 18.7 °F 74% 30.16 in 10.0 mi SSE 5.8 mph - N/A   Clear
7:55 PM 24.6 °F 18.8 °F 18.1 °F 76% 30.16 in 10.0 mi SSE 4.6 mph - N/A   Clear
8:15 PM 25.2 °F 18.3 °F 18.7 °F 76% 30.15 in 10.0 mi SE 5.8 mph - N/A   Clear
8:35 PM 25.5 °F 17.8 °F 19.0 °F 76% 30.14 in 10.0 mi SSE 6.9 mph - N/A   Clear
8:55 PM 25.7 °F 19.0 °F 18.9 °F 75% 30.13 in 10.0 mi SSE 5.8 mph - N/A   Clear
9:15 PM 25.3 °F 18.5 °F 18.9 °F 76% 30.12 in 10.0 mi SSE 5.8 mph - N/A   Clear
9:35 PM 23.9 °F 16.8 °F 18.0 °F 78% 30.11 in 10.0 mi SSE 5.8 mph - N/A   Clear
9:55 PM 23.9 °F 18.0 °F 18.3 °F 79% 30.11 in 10.0 mi SSE 4.6 mph - N/A   Clear
10:15 PM 24.6 °F 18.8 °F 18.5 °F 78% 30.10 in 10.0 mi SSE 4.6 mph - N/A   Clear
10:35 PM 23.9 °F 18.0 °F 18.5 °F 80% 30.10 in 10.0 mi SE 4.6 mph - N/A   Clear
10:55 PM 23.4 °F 17.4 °F 18.1 °F 80% 30.09 in 10.0 mi SSE 4.6 mph - N/A   Clear
11:15 PM 23.7 °F 15.6 °F 18.3 °F 80% 30.09 in 10.0 mi SSE 6.9 mph - N/A   Clear
11:35 PM 25.7 °F 19.0 °F 19.0 °F 76% 30.08 in 10.0 mi SSE 5.8 mph - N/A   Clear
11:55 PM 25.9 °F 17.4 °F 18.9 °F 75% 30.08 in 10.0 mi SSE 8.1 mph - N/A   Clear